This demonstration page uses our WeatherBlox Daily Observations layout. Learn more.

Left ArrowRight Arrow

44.8408, -93.29828

Hourly Observations for August 26, 2019

Temp ( °F °C ) Dew Point ( °F °C ) Humidity (%) Winds ( mph kmh ) Pressure ( in mb ) Visibility ( mi km ) Precip ( " mm )
12:53 am 00:53 Cloudy 66 18.9 58 14.4 75 75 SSE 9 15 29.88 1012 10 16 0.00 0.00
1:53 am 01:53 Cloudy 66 18.9 57 13.9 73 73 SSE 9 15 29.86 1011 10 16 0.00 0.00
2:53 am 02:53 Cloudy 65 18.3 57 13.9 76 76 SE 7 11 29.85 1011 10 16 0.00 0.00
3:53 am 03:53 Cloudy 65 18.3 57 13.9 76 76 SE 8 13 29.85 1011 10 16 0.00 0.00
4:53 am 04:53 Cloudy 64 17.8 57 13.9 78 78 SE 7 11 29.84 1010 10 16 0.00 0.00
5:53 am 05:53 Cloudy 64 17.8 57 13.9 78 78 SE 9 15 29.82 1010 10 16 0.00 0.00
6:00 am 06:00 Cloudy 64 17.8 57 13.9 78 78 SE 9 15 29.81 1009 10 16 0.00 0.00
6:53 am 06:53 Cloudy 65 18.3 57 13.9 76 76 S 10 17 29.83 1010 10 16 0.00 0.00
7:42 am 07:42 Cloudy 64 17.8 58 14.4 81 81 SSE 6 9 29.80 1009 10 16 0.00 0.00
7:53 am 07:53 Cloudy 64 17.8 58 14.4 81 81 SSE 7 11 29.81 1009 10 16 0.00 0.00
8:15 am 08:15 Cloudy 65 18.3 58 14.4 78 78 SSE 5 7 29.80 1009 10 16 0.00 0.00
8:53 am 08:53 Cloudy 65 18.3 58 14.4 78 78 SE 7 11 29.79 1009 10 16 0.00 0.00
9:21 am 09:21 Cloudy 66 18.9 59 15 78 78 SE 8 13 29.76 1008 10 16 0.00 0.00
9:40 am 09:40 Cloudy 66 18.9 59 15 78 78 SE 9 15 29.76 1008 10 16 0.00 0.00
9:53 am 09:53 Cloudy 66 18.9 59 15 78 78 SSE 6 9 29.77 1008 10 16 0.00 0.00
10:45 am 10:45 Cloudy 67 19.4 60 15.6 79 79 SE 12 19 29.75 1007 10 16 0.00 0.00
10:53 am 10:53 Cloudy 68 20 60 15.6 76 76 SSE 10 17 29.76 1008 10 16 0.00 0.00
11:53 am 11:53 Cloudy 68 20 60 15.6 76 76 SE 9 15 29.75 1007 10 16 0.00 0.00
12:36 pm 12:36 Cloudy with Light Rain 68 20 61 16.1 78 78 S 8 13 29.72 1006 10 16 0.00 0.00
12:53 pm 12:53 Cloudy with Light Rain 68 20 61 16.1 78 78 SSE 7 11 29.73 1007 10 16 0.00 0.00
1:31 pm 13:31 Cloudy with Heavy Rain 67 19.4 63 17.2 87 87 WNW 8 13 29.72 1006 5 8 0.06 1.52
1:38 pm 13:38 Cloudy with Heavy Rain 66 18.9 63 17.2 90 90 WNW 6 9 29.72 1006 3 5 0.11 2.79
1:53 pm 13:53 Cloudy with Rain 65 18.3 63 17.2 93 93 W 7 11 29.74 1007 4 6 0.19 4.83
2:03 pm 14:03 Cloudy with Heavy Rain 65 18.3 63 17.2 93 93 W 7 11 29.73 1007 2 3 0.04 1.02
2:30 pm 14:30 Cloudy with Heavy Rain 65 18.3 63 17.2 93 93 WNW 5 7 29.72 1007 2 3 0.33 8.38
2:38 pm 14:38 Cloudy with Rain 65 18.3 63 17.2 93 93 W 6 9 29.72 1007 4 6 0.38 9.65
2:45 pm 14:45 Cloudy with Rain 65 18.3 63 17.2 93 93 W 7 11 29.72 1007 5 8 0.41 10.41
2:53 pm 14:53 Cloudy with Rain 65 18.3 63 17.2 93 93 WNW 6 9 29.72 1007 4 6 0.44 11.18
3:09 pm 15:09 Cloudy with Rain 65 18.3 63 17.2 93 93 WNW 8 13 29.71 1006 4 6 0.05 1.27
3:16 pm 15:16 Cloudy with Rain 65 18.3 63 17.2 93 93 NW 5 7 29.71 1006 4 6 0.07 1.78
3:44 pm 15:44 Cloudy with Light Rain 66 18.9 64 17.8 93 93 NNW 5 7 29.69 1005 7 11 0.13 3.30
3:53 pm 15:53 Cloudy with Rain 66 18.9 63 17.2 90 90 E 3 6 29.69 1005 7 11 0.14 3.56
4:21 pm 16:21 Cloudy with Light Rain 66 18.9 64 17.8 93 93 WSW 9 15 29.69 1005 10 16 0.03 0.76
4:53 pm 16:53 Mostly Cloudy 67 19.4 64 17.8 91 91 WSW 6 9 29.69 1006 10 16 0.03 0.76
5:01 pm 17:01 Mostly Cloudy 67 19.4 63 17.2 87 87 WSW 3 6 29.68 1005 10 16 0.00 0.00
5:30 pm 17:30 Mostly Cloudy 69 20.6 64 17.8 84 84 SW 5 7 29.68 1005 10 16 0.00 0.00
5:53 pm 17:53 Mostly Cloudy 70 21.1 64 17.8 82 82 VRB 5 7 29.69 1005 10 16 0.00 0.00
6:53 pm 18:53 Mostly Cloudy 70 21.1 63 17.2 79 79 SSW 6 9 29.68 1005 10 16 0.00 0.00
7:53 pm 19:53 Mostly Cloudy 69 20.6 63 17.2 81 81 SSW 6 9 29.69 1005 10 16 0.00 0.00
8:53 pm 20:53 Partly Cloudy 68 20 63 17.2 84 84 SW 6 9 29.70 1006 10 16 0.00 0.00
9:53 pm 21:53 Partly Cloudy 67 19.4 62 16.7 84 84 SW 10 17 29.70 1006 10 16 0.00 0.00
10:53 pm 22:53 Clear 65 18.3 60 15.6 84 84 W 6 9 29.71 1006 10 16 0.00 0.00
11:53 pm 23:53 Clear 64 17.8 58 14.4 81 81 W 8 13 29.71 1006 10 16 0.00 0.00

Powered by AerisWeather